[[{"header":{"parameterUnit":"m.s-1","parameterCategory":1,"la1":30.2991,"la2":30.254,"lo1":-89.0895,"lo2":-89.0444,"dy":0.0017,"dx":0.0017,"nx":28,"ny":28,"refTime":"2023-11-22T03:00:00:Z","depth":0,"parameterNumber":2,"parameterNumberName":"U-component_of_WINDS"},"data":[0,0,0,0,0,0,0,0,0,0,0,0,0,0,0,0,0,0,0,0,0,0,0,0,0,0,0,0,0,0,0,0,0,0,0,0,0,0,0,0,0,0,0,0,0,0,0,0,0,0,0,0,0,0,0,0,0,0,1.2347,1.2347,0,1.2319,1.2319,1.2319,1.229,1.229,1.2289,1.2289,1.226,1.2259,1.2259,0,0,0,0,0,0,0,0,0,0,0,0,0,1.2375,1.2375,1.2347,1.2347,1.2347,1.232,1.2319,1.2319,1.229,1.229,1.2289,1.2289,1.226,1.2259,1.2259,0,0,0,0,0,0,0,0,0,0,0,0,0,1.2357,1.2375,1.2347,1.2329,1.2327,1.232,1.2319,1.2319,1.229,1.229,1.2289,1.2288,1.226,1.2259,1.2259,1.2267,0,0,1.2257,1.2257,0,0,0,0,0,0,0,0,1.2358,1.2356,1.2332,1.233,1.2328,1.2308,1.2318,1.2301,1.229,1.2304,1.2289,1.2288,1.2276,1.2274,1.227,1.2265,1.2264,1.2257,1.2256,1.2256,1.2256,0,0,0,0,0,0,0,1.2359,1.2357,1.2336,1.2332,1.2329,1.2322,1.2319,1.2315,1.2294,1.2303,1.2301,1.2298,1.2275,1.2271,1.2269,1.2264,1.2257,1.2256,1.2256,1.2256,1.2265,1.2265,0,0,0,0,0,0,1.2363,1.2358,1.2337,1.2335,1.2342,1.2322,1.2318,1.2315,1.2294,1.229,1.2298,1.2297,1.2272,1.227,1.2268,1.2276,1.2256,1.2256,1.2255,1.2264,1.2265,1.2266,0,0,0,0,0,0,1.2364,1.2362,1.2338,1.2346,1.2343,1.2322,1.2318,1.2315,1.231,1.229,1.2286,1.2298,1.2272,1.2269,1.2268,1.2275,1.2255,1.2255,1.2264,1.2265,1.2265,1.2293,0,0,0,0,0,0,1.2365,1.2362,1.2365,1.2346,1.2342,1.2338,1.2319,1.2314,1.231,1.2307,1.2289,1.2286,1.2271,1.2269,1.2267,1.2274,1.2254,1.2263,1.2264,1.2265,1.2291,1.2294,1.2297,0,0,0,0,0,1.2366,1.2373,1.2365,1.2363,1.2345,1.2339,1.2336,1.2319,1.231,1.2313,1.23,1.2286,1.2275,1.2269,1.2267,1.2273,1.2262,1.2264,1.2265,1.2289,1.2294,1.2297,0,0,0,0,0,0,1.2393,1.2371,1.2361,1.2363,1.2353,1.2334,1.2336,1.2324,1.2316,1.2314,1.2294,1.229,1.2291,1.2282,1.2276,1.228,1.2266,1.2268,1.2286,1.229,1.2293,1.2294,1.2254,0,0,0,0,0,1.2399,1.2395,1.2376,1.2379,1.2375,1.2357,1.2353,1.2341,1.233,1.2325,1.2313,1.2302,1.2296,1.2292,1.2286,1.229,1.2286,1.2293,1.2297,1.2299,1.23,1.2302,1.2305,1.227,1.227,1.227,0,0,1.2411,1.2399,1.2397,1.2384,1.2375,1.2372,1.2353,1.235,1.2348,1.2325,1.2323,1.2313,1.23,1.2302,1.2302,1.2294,1.2309,1.2301,1.2303,1.2303,1.2304,1.2307,1.231,1.2271,1.2271,1.2271,0,0,1.2432,1.2422,1.2424,1.2415,1.2402,1.239,1.2391,1.2374,1.2367,1.2364,1.2347,1.2344,1.2334,1.2326,1.232,1.2339,1.2326,1.2338,1.2354,1.2356,1.2359,1.2361,1.2368,1.237,1.2339,1.2339,1.2339,0,1.2449,1.2443,1.2426,1.2425,1.2419,1.24,1.2401,1.2394,1.2379,1.2376,1.2368,1.2356,1.2346,1.2345,1.235,1.2346,1.2346,1.2339,1.236,1.2362,1.2364,1.237,1.2372,1.2341,1.234,1.234,1.234,0,1.2464,1.2461,1.2464,1.2451,1.2446,1.2446,1.2429,1.2427,1.2416,1.2405,1.2403,1.2391,1.2381,1.238,1.2369,1.2379,1.2374,1.2364,1.2349,1.2369,1.2374,1.2376,1.2343,1.2342,1.2342,1.2341,0,0,1.2499,1.2478,1.2479,1.2473,1.2458,1.2455,1.2455,1.2446,1.2444,1.2435,1.2434,1.2427,1.2417,1.2411,1.2399,1.2401,1.2417,1.239,1.2389,1.2395,1.2426,1.2434,1.2437,1.2409,1.2409,1.2409,1.2427,0,1.2517,1.2515,1.25,1.2502,1.2499,1.2481,1.2481,1.2471,1.2462,1.2457,1.2446,1.2442,1.2429,1.2425,1.2426,1.2415,1.2423,1.2413,1.2407,1.2407,1.241,1.244,1.2448,1.2465,1.2429,1.2429,1.243,0,1.2537,1.2529,1.2531,1.2517,1.2515,1.2515,1.2506,1.2503,1.2492,1.2485,1.2479,1.2465,1.2464,1.2452,1.245,1.2444,1.2441,1.2435,1.2435,1.2433,1.2419,1.2438,1.247,1.2472,1.2433,1.2433,1.2432,0,1.2562,1.2553,1.2553,1.2548,1.2531,1.2531,1.2524,1.2513,1.2509,1.2502,1.2499,1.2492,1.2488,1.2482,1.2468,1.246,1.2468,1.2454,1.2461,1.2462,1.2463,1.2463,1.2494,1.2462,1.2462,1.2462,1.2462,0,1.2582,1.2584,1.2564,1.2564,1.2565,1.2549,1.2551,1.2542,1.2533,1.2531,1.2515,1.2513,1.2495,1.2491,1.248,1.248,1.2479,1.2473,1.2469,1.2474,1.2474,1.247,1.2469,1.2463,1.2462,1.2462,1.2462,0,1.261,1.2596,1.2595,1.258,1.2576,1.2578,1.2564,1.2564,1.2554,1.2551,1.255,1.2534,1.2529,1.2515,1.2506,1.2498,1.2502,1.2496,1.2505,1.2503,1.2511,1.2511,1.2541,1.2544,1.2511,1.2511,1.2512,0,1.2623,1.2624,1.2609,1.2607,1.2601,1.2597,1.2594,1.2578,1.2575,1.2563,1.2564,1.2558,1.2553,1.2546,1.2533,1.2527,1.2521,1.2532,1.252,1.2524,1.252,1.252,1.252,1.2534,1.2535,1.2535,1.2535,0,1.2649,1.2642,1.2637,1.2631,1.2627,1.262,1.2613,1.2612,1.2595,1.2592,1.2587,1.2583,1.2575,1.2569,1.2561,1.2554,1.2542,1.254,1.2541,1.2545,1.255,1.2547,1.2512,1.2539,1.2538,1.2538,1.2538,1.2538,1.2669,1.267,1.2659,1.2655,1.2648,1.2642,1.2641,1.2631,1.2627,1.2619,1.261,1.2606,1.2596,1.2584,1.2578,1.2575,1.2569,1.2571,1.2571,1.2572,1.2573,1.2551,1.2574,1.2574,1.2573,1.2573,1.2573,0,1.2694,1.2686,1.2682,1.2673,1.267,1.266,1.2651,1.2649,1.2646,1.2638,1.2633,1.2628,1.2623,1.2611,1.2604,1.2604,1.2599,1.2603,1.2603,1.2601,1.258,1.2579,1.2608,1.2608,1.2608,1.2608,1.2608,1.2608,1.2706,1.2706,1.2698,1.2695,1.2688,1.2684,1.268,1.2675,1.2668,1.2664,1.2659,1.2652,1.2642,1.2635,1.263,1.2627,1.2625,1.2631,1.2626,1.2606,1.2603,1.2599,1.2599,1.2631,1.2631,1.2647,1.2647,1.2648]},{"header":{"parameterUnit":"m.s-1","parameterCategory":1,"la1":30.2991,"la2":30.254,"lo1":-89.0895,"lo2":-89.0444,"dy":0.0017,"dx":0.0017,"nx":28,"ny":28,"refTime":"2023-11-22T03:00:00:Z","depth":0,"parameterNumber":3,"parameterNumberName":"V-component_of_WINDS"},"data":[0,0,0,0,0,0,0,0,0,0,0,0,0,0,0,0,0,0,0,0,0,0,0,0,0,0,0,0,0,0,0,0,0,0,0,0,0,0,0,0,0,0,0,0,0,0,0,0,0,0,0,0,0,0,0,0,0,0,-5.2945,-5.2947,0,-5.3115,-5.3117,-5.3119,-5.3065,-5.3061,-5.3057,-5.3054,-5.3225,-5.3233,-5.3241,0,0,0,0,0,0,0,0,0,0,0,0,0,-5.257,-5.2577,-5.2945,-5.2947,-5.2949,-5.3115,-5.3117,-5.3119,-5.3065,-5.3061,-5.3056,-5.3052,-5.3223,-5.3232,-5.3242,0,0,0,0,0,0,0,0,0,0,0,0,0,-5.2736,-5.258,-5.2944,-5.2942,-5.2944,-5.3114,-5.3117,-5.312,-5.3066,-5.3061,-5.3055,-5.305,-5.322,-5.3231,-5.3243,-5.3425,0,0,-5.3279,-5.3285,0,0,0,0,0,0,0,0,-5.2727,-5.275,-5.294,-5.2943,-5.2945,-5.3063,-5.3048,-5.3222,-5.3068,-5.302,-5.3054,-5.3048,-5.3176,-5.3191,-5.3235,-5.3433,-5.3441,-5.328,-5.3288,-5.3293,-5.3296,0,0,0,0,0,0,0,-5.2715,-5.2742,-5.3012,-5.2943,-5.2946,-5.2932,-5.2949,-5.3081,-5.3126,-5.3023,-5.302,-5.3041,-5.3176,-5.3223,-5.3238,-5.3443,-5.328,-5.3291,-5.3298,-5.3303,-5.38,-5.3806,0,0,0,0,0,0,-5.2703,-5.2733,-5.3007,-5.3017,-5.282,-5.2943,-5.2962,-5.303,-5.3124,-5.3133,-5.3045,-5.3038,-5.3206,-5.3224,-5.3244,-5.3464,-5.3293,-5.3304,-5.3311,-5.3794,-5.3802,-5.3808,0,0,0,0,0,0,-5.2695,-5.2728,-5.3,-5.2874,-5.2908,-5.2955,-5.3032,-5.3037,-5.3084,-5.3141,-5.3148,-5.3086,-5.3202,-5.3227,-5.3381,-5.3469,-5.3309,-5.332,-5.3787,-5.3797,-5.3805,-5.3906,0,0,0,0,0,0,-5.2684,-5.2725,-5.2796,-5.2876,-5.2915,-5.3135,-5.3037,-5.3044,-5.3105,-5.3097,-5.3181,-5.319,-5.32,-5.3364,-5.3393,-5.3483,-5.3329,-5.3779,-5.3791,-5.3802,-5.3895,-5.3917,-5.3937,0,0,0,0,0,-5.2671,-5.2817,-5.28,-5.2833,-5.3004,-5.314,-5.3162,-5.3172,-5.3113,-5.3184,-5.322,-5.3187,-5.3455,-5.338,-5.3412,-5.3507,-5.3774,-5.3788,-5.3801,-5.3886,-5.3913,-5.3936,0,0,0,0,0,0,-5.2744,-5.2827,-5.2809,-5.2985,-5.3056,-5.3131,-5.3221,-5.32,-5.3289,-5.3277,-5.3284,-5.3303,-5.3461,-5.3499,-5.3414,-5.3689,-5.3605,-5.3626,-5.3658,-5.3685,-5.3705,-5.3693,-5.3339,0,0,0,0,0,-5.2781,-5.2886,-5.2952,-5.3101,-5.3138,-5.3173,-5.3233,-5.3234,-5.3308,-5.3337,-5.3385,-5.3457,-5.3557,-5.3623,-5.3718,-5.39,-5.3917,-5.3981,-5.4002,-5.4019,-5.4037,-5.4136,-5.4165,-5.3853,-5.3853,-5.3853,0,0,-5.2858,-5.2916,-5.2981,-5.3117,-5.3172,-5.328,-5.3199,-5.3316,-5.3396,-5.3354,-5.3503,-5.3541,-5.3621,-5.379,-5.3866,-5.3826,-5.4127,-5.4036,-5.4049,-5.4058,-5.4153,-5.4182,-5.4209,-5.3862,-5.3861,-5.3859,0,0,-5.3053,-5.3107,-5.3238,-5.3295,-5.338,-5.3403,-5.3434,-5.3512,-5.3536,-5.3685,-5.3657,-5.3751,-5.3923,-5.3982,-5.4035,-5.4252,-5.4225,-5.4283,-5.4392,-5.4488,-5.4513,-5.4535,-5.4613,-5.4641,-5.4301,-5.4301,-5.4301,0,-5.3137,-5.3299,-5.3307,-5.3427,-5.3488,-5.3456,-5.3588,-5.3642,-5.3754,-5.3796,-5.375,-5.3966,-5.4018,-5.42,-5.4253,-5.4297,-5.4332,-5.4274,-5.4509,-5.4531,-5.4551,-5.4626,-5.4655,-5.4307,-5.4307,-5.4306,-5.4305,0,-5.3399,-5.3512,-5.3607,-5.3717,-5.3787,-5.3913,-5.3939,-5.4009,-5.4004,-5.4032,-5.4184,-5.4245,-5.4353,-5.4396,-5.4391,-5.4578,-5.455,-5.4507,-5.4423,-5.4588,-5.4658,-5.4686,-5.4317,-5.4314,-5.4312,-5.4311,0,0,-5.3646,-5.3758,-5.3793,-5.3843,-5.3934,-5.4021,-5.4144,-5.425,-5.4311,-5.4389,-5.4492,-5.4639,-5.46,-5.4659,-5.4661,-5.4746,-5.4915,-5.4692,-5.4694,-5.4732,-5.5124,-5.5157,-5.519,-5.4897,-5.4903,-5.4907,-5.5117,0,-5.3849,-5.4067,-5.4078,-5.4276,-5.438,-5.4352,-5.4459,-5.4527,-5.4556,-5.4647,-5.4678,-5.4783,-5.4722,-5.4758,-5.4841,-5.4877,-5.4994,-5.4862,-5.4993,-5.4998,-5.4975,-5.5226,-5.5262,-5.5457,-5.5145,-5.5149,-5.5153,0,-5.4115,-5.4203,-5.4412,-5.4489,-5.4533,-5.463,-5.4728,-5.4816,-5.4891,-5.4906,-5.4973,-5.4963,-5.5089,-5.5001,-5.5174,-5.5084,-5.5138,-5.5164,-5.5172,-5.5185,-5.5086,-5.5247,-5.552,-5.555,-5.5196,-5.5192,-5.5189,0,-5.4275,-5.4444,-5.4592,-5.4635,-5.4728,-5.4797,-5.4839,-5.4909,-5.4972,-5.5057,-5.5098,-5.5197,-5.5251,-5.5327,-5.5343,-5.5278,-5.5517,-5.543,-5.5532,-5.5532,-5.5584,-5.5581,-5.5871,-5.5619,-5.5618,-5.5617,-5.5617,0,-5.4501,-5.463,-5.4665,-5.4756,-5.4899,-5.4909,-5.5051,-5.5088,-5.5151,-5.5247,-5.5228,-5.5319,-5.5335,-5.5429,-5.5442,-5.5584,-5.5608,-5.5623,-5.5625,-5.5626,-5.5624,-5.5662,-5.5649,-5.5625,-5.5624,-5.5622,-5.5621,0,-5.4704,-5.4732,-5.4891,-5.4967,-5.4989,-5.5091,-5.5155,-5.5242,-5.5268,-5.5391,-5.542,-5.5462,-5.5572,-5.5595,-5.5725,-5.5734,-5.5903,-5.5891,-5.5878,-5.5877,-5.5978,-5.5969,-5.6303,-5.6348,-5.6066,-5.6068,-5.607,0,-5.4847,-5.4946,-5.5032,-5.5096,-5.5142,-5.5245,-5.531,-5.5323,-5.5391,-5.5485,-5.556,-5.5668,-5.5755,-5.5932,-5.5973,-5.6073,-5.6063,-5.6174,-5.6078,-5.6075,-5.6066,-5.606,-5.607,-5.6192,-5.6195,-5.6198,-5.62,0,-5.5098,-5.5107,-5.5202,-5.5302,-5.538,-5.5459,-5.5534,-5.5587,-5.561,-5.5688,-5.5801,-5.5869,-5.6002,-5.6109,-5.6209,-5.6251,-5.623,-5.6229,-5.6258,-5.626,-5.6249,-5.6257,-5.5928,-5.6222,-5.622,-5.6218,-5.6217,-5.6216,-5.5276,-5.5363,-5.5437,-5.5543,-5.5601,-5.5672,-5.5757,-5.5795,-5.589,-5.6,-5.6002,-5.6125,-5.6197,-5.6329,-5.6377,-5.6473,-5.6439,-5.6481,-5.6492,-5.6502,-5.6512,-5.6233,-5.6491,-5.6491,-5.649,-5.649,-5.6489,0,-5.5526,-5.5573,-5.567,-5.5777,-5.586,-5.5833,-5.5915,-5.5987,-5.6096,-5.6166,-5.6252,-5.6382,-5.6486,-5.6535,-5.6638,-5.6706,-5.6698,-5.6732,-5.6728,-5.6738,-5.6536,-5.6501,-5.6736,-5.6736,-5.6736,-5.6736,-5.6736,-5.6736,-5.5666,-5.5812,-5.583,-5.6004,-5.605,-5.6171,-5.622,-5.6285,-5.6341,-5.6487,-5.6574,-5.6606,-5.6668,-5.6775,-5.6869,-5.6881,-5.692,-5.6958,-5.6966,-5.6777,-5.6752,-5.6728,-5.6695,-5.6967,-5.6967,-5.7159,-5.7161,-5.7162]}]]